| time (UTC) | temp C | wind direction | speed KPH | gust KPH | rain 1hr cm | rain 24hr cm | rain mn cm | humidity % | barometer mb |
| 20260506061536 | 14 | 238 | 0.0 | 0.0 | 0.00 | 0.23 | 0.00 | 76 | 1008.2 |
| 20260506044536 | 12 | 238 | 0.0 | 0.0 | 0.00 | 0.23 | 0.00 | 68 | 1008.4 |
| 20260506043025 | 11 | 238 | 0.0 | 0.0 | 0.00 | 0.23 | 0.00 | 68 | 1008.5 |
| 20260506041528 | 11 | 238 | 0.0 | 0.0 | 0.00 | 0.23 | 0.00 | 69 | 1008.6 |
| 20260506040019 | 11 | 238 | 0.0 | 0.0 | 0.00 | 0.23 | 0.00 | 72 | 1008.6 |
| 20260506034516 | 11 | 238 | 0.0 | 0.0 | 0.00 | 0.23 | 0.00 | 72 | 1008.7 |
| 20260506033013 | 11 | 238 | 0.0 | 0.0 | 0.00 | 0.23 | 0.00 | 73 | 1008.8 |
| 20260506031512 | 11 | 238 | 0.0 | 0.0 | 0.00 | 0.23 | 0.00 | 74 | 1008.9 |
| 20260506030010 | 12 | 126 | 0.0 | 0.0 | 0.00 | 0.23 | 0.00 | 75 | 1008.5 |
| 20260506024516 | 12 | 127 | 0.0 | 0.0 | 0.00 | 0.23 | 0.00 | 76 | 1008.6 |
| 20260506023013 | 12 | 127 | 0.0 | 0.0 | 0.00 | 0.23 | 0.00 | 77 | 1008.7 |
| 20260506021505 | 12 | 127 | 0.0 | 0.0 | 0.00 | 0.23 | 0.00 | 78 | 1008.7 |
| 20260506020004 | 13 | 126 | 0.0 | 0.0 | 0.00 | 0.23 | 0.00 | 78 | 1008.5 |
| 20260506014502 | 13 | 134 | 0.0 | 0.0 | 0.00 | 0.23 | 0.00 | 78 | 1008.5 |
| 20260506013003 | 13 | 242 | 0.0 | 0.0 | 0.00 | 0.23 | 0.00 | 77 | 1008.5 |
| 20260506011503 | 14 | 269 | 0.0 | 0.0 | 0.00 | 0.23 | 0.00 | 77 | 1008.8 |
| 20260506010002 | 14 | 241 | 0.0 | 0.0 | 0.00 | 0.23 | 0.00 | 77 | 1008.9 |
| 20260506004501 | 14 | 223 | 0.0 | 0.0 | 0.00 | 0.23 | 0.00 | 77 | 1009.1 |
| 20260506003100 | 14 | 267 | 0.0 | 0.0 | 0.00 | 0.23 | 0.00 | 77 | 1009.3 |
| 20260506001601 | 14 | 246 | 0.0 | 0.0 | 0.00 | 0.23 | 0.00 | 77 | 1009.2 |
| 20260505234557 | 14 | 239 | 0.0 | 0.0 | 0.00 | 0.23 | 0.00 | 77 | 1009.1 |
| 20260505233055 | 14 | 235 | 0.0 | 0.0 | 0.00 | 0.23 | 0.00 | 76 | 1009.2 |
| 20260505231555 | 14 | 272 | 0.0 | 0.0 | 0.00 | 0.23 | 0.00 | 76 | 1008.9 |
| 20260505230052 | 13 | 245 | 0.0 | 0.0 | 0.00 | 0.23 | 0.00 | 75 | 1008.9 |
| 20260505224610 | 13 | 271 | 0.0 | 0.0 | 0.00 | 0.23 | 0.00 | 72 | 1008.6 |
| 20260505223041 | 13 | 244 | 0.0 | 0.0 | 0.00 | 0.23 | 0.00 | 68 | 1008.4 |
| 20260505221545 | 13 | 225 | 0.0 | 0.0 | 0.00 | 0.23 | 0.00 | 67 | 1008.0 |
| 20260505220051 | 13 | 237 | 0.0 | 0.0 | 0.00 | 0.23 | 0.00 | 68 | 1007.9 |
| 20260505214534 | 13 | 360 | 0.0 | 0.0 | 0.00 | 0.23 | 0.23 | 68 | 1007.7 |
| 20260505213038 | 13 | 360 | 0.0 | 0.0 | 0.00 | 0.23 | 0.23 | 69 | 1007.5 |
| 20260505211538 | 13 | 209 | 0.0 | 0.0 | 0.00 | 0.23 | 0.23 | 69 | 1007.2 |
| 20260505210041 | 13 | 360 | 0.0 | 0.0 | 0.00 | 0.23 | 0.23 | 70 | 1007.1 |
| 20260505204531 | 14 | 360 | 0.0 | 0.0 | 0.00 | 0.23 | 0.23 | 72 | 1006.9 |
| 20260505203030 | 14 | 211 | 0.0 | 0.0 | 0.00 | 0.23 | 0.23 | 72 | 1006.8 |
| 20260505201529 | 14 | 360 | 0.0 | 0.0 | 0.00 | 0.23 | 0.23 | 73 | 1006.8 |
| 20260505200028 | 14 | 211 | 0.0 | 0.0 | 0.00 | 0.23 | 0.23 | 72 | 1006.5 |
| 20260505194528 | 14 | 209 | 0.0 | 0.0 | 0.00 | 0.23 | 0.23 | 72 | 1006.3 |
| 20260505193034 | 14 | 360 | 0.0 | 0.0 | 0.00 | 0.23 | 0.23 | 72 | 1006.1 |
| 20260505191526 | 14 | 247 | 0.0 | 0.0 | 0.00 | 0.23 | 0.23 | 71 | 1005.9 |
| 20260505190026 | 14 | 253 | 0.0 | 0.0 | 0.10 | 0.23 | 0.23 | 70 | 1005.8 |
| 20260505184527 | 14 | 258 | 0.0 | 0.0 | 0.23 | 0.23 | 0.23 | 69 | 1005.5 |
| 20260505183035 | 14 | 237 | 0.0 | 0.0 | 0.23 | 0.23 | 0.23 | 69 | 1005.2 |
| 20260505181528 | 15 | 254 | 0.0 | 0.0 | 0.23 | 0.23 | 0.23 | 75 | 1004.9 |
| 20260505180025 | 15 | 234 | 0.0 | 0.0 | 0.13 | 0.13 | 0.13 | 77 | 1004.8 |
| 20260505174522 | 16 | 257 | 0.0 | 0.0 | 0.00 | 0.00 | 0.00 | 72 | 1004.5 |
| 20260505173021 | 18 | 298 | 0.0 | 0.0 | 0.00 | 0.00 | 0.00 | 61 | 1004.1 |
| 20260505171521 | 23 | 307 | 0.0 | 0.0 | 0.00 | 0.00 | 0.00 | 44 | 1003.6 |
| 20260505170020 | 24 | 94 | 0.0 | 0.0 | 0.00 | 0.00 | 0.00 | 43 | 1003.0 |
| 20260505164520 | 24 | 95 | 0.0 | 0.0 | 0.00 | 0.00 | 0.00 | 43 | 1003.0 |
| 20260505163019 | 25 | 96 | 0.0 | 0.0 | 0.00 | 0.00 | 0.00 | 42 | 1003.0 |
| 20260505161517 | 25 | 102 | 0.0 | 0.0 | 0.00 | 0.00 | 0.00 | 39 | 1003.3 |
| 20260505153013 | 26 | 49 | 0.0 | 0.0 | 0.00 | 0.00 | 0.00 | 38 | 1003.5 |
| 20260505151511 | 27 | 65 | 0.0 | 0.0 | 0.00 | 0.00 | 0.00 | 35 | 1003.6 |
| 20260505124558 | 25 | 34 | 0.0 | 0.0 | 0.00 | 0.00 | 0.00 | 37 | 1005.2 |
| 20260505123056 | 27 | 93 | 0.0 | 0.0 | 0.00 | 0.00 | 0.00 | 36 | 1005.4 |
| 20260505121547 | 26 | 60 | 0.0 | 0.0 | 0.00 | 0.00 | 0.00 | 37 | 1005.5 |
| 20260505120059 | 26 | 95 | 0.0 | 0.0 | 0.00 | 0.00 | 0.00 | 39 | 1005.8 |
| 20260505114541 | 26 | 32 | 0.0 | 0.0 | 0.00 | 0.00 | 0.00 | 37 | 1005.9 |
| 20260505113043 | 25 | 38 | 0.0 | 0.0 | 0.00 | 0.00 | 0.00 | 40 | 1006.1 |
| 20260505111538 | 26 | 71 | 0.0 | 0.0 | 0.00 | 0.00 | 0.00 | 43 | 1006.3 |
| 20260505101525 | 23 | 40 | 0.0 | 0.0 | 0.00 | 0.00 | 0.00 | 46 | 1007.0 |
| 20260505100024 | 23 | 38 | 0.0 | 0.0 | 0.00 | 0.00 | 0.00 | 49 | 1007.2 |
| 20260505094519 | 22 | 40 | 0.0 | 0.0 | 0.00 | 0.00 | 0.00 | 49 | 1007.3 |
| 20260505093014 | 22 | 24 | 0.0 | 0.0 | 0.00 | 0.00 | 0.00 | 52 | 1007.4 |
| 20260505091513 | 22 | 50 | 0.0 | 0.0 | 0.00 | 0.00 | 0.00 | 54 | 1007.6 |
| 20260505090009 | 21 | 40 | 0.0 | 0.0 | 0.00 | 0.00 | 0.00 | 57 | 1007.7 |
| 20260505084513 | 21 | 49 | 0.0 | 0.0 | 0.00 | 0.00 | 0.00 | 56 | 1007.8 |
| 20260505083002 | 20 | 255 | 0.0 | 0.0 | 0.00 | 0.00 | 0.00 | 54 | 1007.9 |
| 20260505081559 | 20 | 26 | 0.0 | 0.0 | 0.00 | 0.00 | 0.00 | 55 | 1007.9 |
| 20260505080106 | 19 | 348 | 0.0 | 0.0 | 0.00 | 0.00 | 0.00 | 57 | 1008.1 |
| 20260505074550 | 18 | 209 | 0.0 | 0.0 | 0.00 | 0.00 | 0.00 | 62 | 1008.3 |
| 20260505073047 | 18 | 319 | 0.0 | 0.0 | 0.00 | 0.00 | 0.00 | 61 | 1008.4 |
| 20260505071543 | 17 | 250 | 0.0 | 0.0 | 0.00 | 0.00 | 0.00 | 63 | 1008.3 |